Whidbey Island, WA

11:04 AM PDT on September 19, 2017 (GMT -0700)
Whidbey Island Naval Air Station

Weather History for KNUW - December, 2012

Change the Weather History Date:

Saturday, December 29, 2012

  Actual Average Record
Temperature  
Mean Temperature 38 °F -  
Max Temperature 39 °F 43 °F 52 °F (1998)
Min Temperature 37 °F 33 °F 21 °F (1996)
Degree Days  
Heating Degree Days 27    
Moisture  
Dew Point 36 °F    
Average Humidity 89    
Maximum Humidity 93    
Minimum Humidity 86    
Precipitation  
Precipitation 0.13 in - - ()
Sea Level Pressure  
Sea Level Pressure 30.19 in    
Wind  
Wind Speed 5 mph (East)    
Max Wind Speed 10 mph    
Max Gust Speed -    
Visibility 7 miles    
Events Rain    
Averages and records for this station are not official NWS values.
T = Trace of Precipitation, MM = Missing Value Source: NWS Daily Summary

Daily Weather History Graph

Daily Weather History Graph

Search for Another Location

Airport or City:

Trip Planner

Search our weather history database for the weather conditions in past years. The results will help you decide how hot, cold, wet, or windy it might be!

Date:

Astronomy

Dec. 29, 2012 Rise Set
Actual Time 8:01 AM PST 4:24 PM PST
Civil Twilight 7:25 AM PST 5:00 PM PST
Nautical Twilight 6:45 AM PST 5:40 PM PST
Astronomical Twilight 6:07 AM PST 6:18 PM PST
Moon 6:11 PM PST (12/29) 8:30 AM PST (12/29)
Length of Visible Light 9h 35m
Length of Day
8h 22m
Full, 98% of the Moon is Illuminated
Dec 29
Full
Jan 4
Last Quarter
Jan 11
New
Jan 18
First Quarter
Jan 26
Full

Hourly Weather History & Observations

Time (PST) Temp. Windchill Dew Point Humidity Pressure Visibility Wind Dir Wind Speed Gust Speed Precip Events Conditions
12:56 AM 39.0 °F - 36.0 °F 89% 30.18 in 10.0 mi Calm Calm - 0.00 in   Overcast
1:29 AM 39.2 °F 34.2 °F 35.6 °F 87% 30.17 in 10.0 mi ESE 6.9 mph - 0.00 in Rain Light Rain
1:56 AM 39.9 °F 35.8 °F 36.0 °F 86% 30.19 in 10.0 mi East 5.8 mph - 0.01 in Rain Light Rain
2:56 AM 39.0 °F 34.8 °F 36.0 °F 89% 30.19 in 10.0 mi East 5.8 mph - 0.01 in Rain Light Rain
3:56 AM 39.0 °F 34.0 °F 35.1 °F 86% 30.19 in 10.0 mi East 6.9 mph - 0.00 in Rain Light Rain
4:56 AM 39.0 °F 34.0 °F 35.1 °F 86% 30.19 in 10.0 mi East 6.9 mph - 0.01 in Rain Light Rain
5:56 AM 39.0 °F 34.0 °F 35.1 °F 86% 30.19 in 10.0 mi ESE 6.9 mph - 0.00 in Rain Light Rain
6:56 AM 37.9 °F 31.5 °F 35.1 °F 89% 30.19 in 10.0 mi East 9.2 mph - 0.01 in Rain Light Rain
7:56 AM 37.9 °F 32.1 °F 35.1 °F 89% 30.18 in 10.0 mi East 8.1 mph - 0.01 in Rain Light Rain
8:56 AM 37.9 °F 31.5 °F 35.1 °F 89% 30.20 in 10.0 mi ESE 9.2 mph - 0.02 in Rain Light Rain
9:36 AM 37.4 °F 31.4 °F 35.6 °F 93% 30.20 in 6.0 mi East 8.1 mph - 0.04 in Rain Light Rain
9:56 AM 37.9 °F 31.5 °F 35.1 °F 89% 30.21 in 10.0 mi ESE 9.2 mph - 0.04 in Rain Light Rain
10:56 AM 39.0 °F 33.4 °F 36.0 °F 89% 30.20 in 10.0 mi ESE 8.1 mph - 0.00 in Rain Light Rain
11:56 AM 39.0 °F 34.0 °F 36.0 °F 89% 30.19 in 4.0 mi ESE 6.9 mph - 0.00 in Rain Light Rain
12:56 PM 39.0 °F 32.3 °F 36.0 °F 89% 30.17 in 2.0 mi East 10.4 mph - 0.01 in Rain Light Rain
1:33 PM 37.4 °F 30.8 °F 35.6 °F 93% 30.16 in 4.0 mi East 9.2 mph - 0.00 in Rain Light Rain
1:56 PM 39.0 °F 33.4 °F 36.0 °F 89% 30.17 in 2.0 mi East 8.1 mph - 0.00 in Rain Light Rain
2:21 PM 39.2 °F 34.2 °F 35.6 °F 87% 30.16 in 2.0 mi East 6.9 mph - 0.00 in   Overcast
2:56 PM 39.0 °F 36.8 °F 36.0 °F 89% 30.18 in 2.0 mi East 3.5 mph - 0.00 in   Overcast
3:15 PM 39.2 °F 37.0 °F 35.6 °F 87% 30.17 in 1.5 mi East 3.5 mph - N/A   Overcast
3:31 PM 39.2 °F 35.9 °F 35.6 °F 87% 30.17 in 1.5 mi ESE 4.6 mph - 0.01 in Rain Light Rain
3:56 PM 39.0 °F - 37.0 °F 93% 30.18 in 2.5 mi Calm Calm - 0.01 in   Overcast
4:32 PM 39.2 °F - 35.6 °F 87% 30.17 in 2.5 mi Calm Calm - 0.00 in Rain Light Rain
4:56 PM 39.0 °F - 36.0 °F 89% 30.19 in 2.5 mi Calm Calm - 0.00 in Rain Light Rain
5:56 PM 39.0 °F - 36.0 °F 89% 30.19 in 4.0 mi Calm Calm - 0.00 in   Overcast
6:56 PM 37.9 °F - 36.0 °F 93% 30.20 in 5.0 mi Calm Calm - N/A   Overcast
7:56 PM 39.0 °F - 36.0 °F 89% 30.21 in 6.0 mi Calm Calm - N/A   Overcast
8:56 PM 39.0 °F 36.8 °F 36.0 °F 89% 30.22 in 9.0 mi NNE 3.5 mph - N/A   Overcast
9:56 PM 39.0 °F - 36.0 °F 89% 30.24 in 10.0 mi Calm Calm - N/A   Overcast
10:56 PM 39.0 °F 34.8 °F 35.1 °F 86% 30.25 in 10.0 mi NE 5.8 mph - N/A   Overcast
11:56 PM 39.0 °F 35.7 °F 35.1 °F 86% 30.26 in 10.0 mi NNE 4.6 mph - N/A   Overcast